Theta_e
325 325 324 323 323 321 318 316 314 313 312 311 312 312 311 312 313 318 320 323 326 335 348 352 354 356 358 354 351 356 370 350 341 340 337 336 337 337 338 343 344 343 343 341 342
324 324 323 323 323 322 321 318 315 314 312 311 312 312 311 311 315 321 324 321 319 321 348 355 358 353 355 351 346 352 359 349 342 340 339 340 340 339 340 344 344 343 342 341 342
324 324 324 324 323 323 322 319 317 315 312 312 312 312 310 310 329 327 323 318 318 325 336 349 352 350 356 356 354 353 361 345 345 343 342 342 341 339 342 343 342 341 341 340 339
325 325 325 323 322 322 322 321 318 314 312 312 312 311 309 317 335 327 320 316 323 330 341 350 352 353 357 361 356 357 350 346 343 343 343 341 339 340 340 340 338 338 339 339 339
325 323 324 323 322 322 322 320 316 313 312 313 312 310 316 327 326 325 317 324 334 345 348 346 351 354 357 356 354 356 351 349 344 344 343 340 340 341 340 338 338 339 340 340 338
322 321 323 323 323 321 318 315 313 312 313 313 312 309 321 327 327 318 324 325 340 345 340 341 347 347 350 353 352 351 352 350 348 347 346 344 342 341 340 339 340 341 342 341 339
319 319 321 322 322 316 314 313 312 312 313 313 313 315 325 327 327 320 330 326 333 337 340 336 334 341 349 355 352 354 353 354 351 350 350 350 349 344 340 340 342 344 345 344 341
319 319 320 322 321 317 316 315 313 313 313 313 313 322 326 330 327 326 330 330 330 334 336 330 332 337 337 352 356 358 355 364 351 352 350 349 353 346 341 341 342 343 345 345 342
316 318 320 322 320 318 318 316 315 313 313 313 317 324 330 328 328 327 329 329 329 326 329 331 333 335 338 356 360 361 359 360 355 352 355 355 357 351 343 342 343 342 343 345 344
318 318 319 321 321 318 319 318 317 314 317 322 325 329 327 326 327 326 326 326 324 323 326 330 333 337 334 354 364 365 364 357 355 356 358 357 354 351 345 343 343 341 341 343 345
317 318 318 321 321 318 320 326 324 325 325 324 325 329 329 328 325 325 324 324 322 322 322 328 333 334 333 350 350 353 353 357 356 354 357 353 354 357 348 346 342 340 340 341 344
315 317 318 321 322 318 317 323 328 324 324 324 323 325 327 326 326 325 324 321 321 320 323 326 331 331 332 353 352 351 356 359 357 351 351 350 354 355 352 348 344 342 341 341 342
313 315 317 321 322 318 319 326 325 323 323 325 324 324 325 324 324 324 321 321 321 322 322 327 333 332 331 338 336 335 349 358 359 354 351 351 358 356 359 352 346 343 342 342 342
311 312 316 320 326 324 328 327 325 324 325 330 324 323 324 324 323 325 324 323 322 322 322 323 329 332 332 332 331 332 336 345 342 353 360 354 360 357 357 354 351 345 343 343 342
309 310 314 320 326 323 327 326 325 323 334 328 324 325 323 323 325 324 325 322 322 325 325 325 329 330 330 331 330 329 331 332 335 334 337 347 348 352 354 351 349 349 345 344 342
308 309 312 323 326 329 327 327 326 326 335 328 325 325 323 323 324 325 326 324 325 325 325 325 326 327 327 328 328 328 326 326 329 330 333 335 350 360 355 355 360 361 353 346 342
308 310 312 315 329 328 327 326 328 328 330 326 324 324 323 324 324 325 325 325 324 326 325 325 325 325 327 325 324 325 322 323 328 329 334 334 339 350 355 355 356 354 352 348 344
308 311 321 323 327 328 328 328 333 334 334 328 325 324 324 324 324 326 326 325 324 324 324 325 326 325 325 323 323 322 320 321 329 332 335 330 357 358 352 346 342 342 348 349 348
309 312 321 329 329 328 327 332 334 336 333 332 329 327 325 325 326 325 324 326 326 324 324 326 328 328 326 325 322 322 322 320 320 321 322 334 352 351 350 349 348 349 348 352 351
312 318 327 328 329 326 328 330 332 331 331 332 331 330 329 326 325 325 325 325 327 327 323 325 326 326 328 324 323 320 321 323 320 324 328 327 352 351 354 354 351 350 348 348 349
316 325 331 330 327 328 329 329 330 330 331 331 331 329 330 331 330 326 326 327 326 326 325 324 324 326 327 326 323 323 321 322 320 323 323 326 326 331 348 349 347 346 347 347 344
319 329 330 329 330 329 329 329 325 329 329 330 330 328 328 329 330 331 332 329 326 326 325 325 324 326 326 326 325 323 322 320 320 323 326 328 328 345 344 348 348 347 345 343 343
317 321 320 324 329 329 328 327 326 327 329 330 331 329 328 328 329 331 332 330 330 327 326 326 325 325 326 324 325 323 324 323 321 321 322 329 329 346 346 344 347 348 349 348 348
317 325 324 325 327 330 331 329 330 329 327 329 329 329 329 329 329 331 331 330 329 329 333 327 322 325 325 326 328 325 325 324 321 321 323 324 338 350 354 354 352 354 353 354 352
322 323 321 323 323 322 324 325 327 329 332 328 329 330 330 331 331 332 333 333 333 331 327 322 323 325 325 326 326 326 326 325 323 323 324 325 326 346 347 354 352 354 355 359 358
321 323 322 323 320 320 319 320 320 321 323 324 326 327 329 334 333 336 334 334 336 333 332 325 324 327 325 325 325 325 326 326 325 325 325 324 324 341 346 347 354 355 357 360 365
317 318 320 323 323 323 323 323 322 321 321 322 325 330 331 333 331 330 330 330 331 332 332 332 333 328 324 325 325 325 326 326 326 327 325 324 323 327 343 350 351 354 355 362 363
Wind_Speed
15 16 16 15 14 13 11 11 10 9 9 8 8 10 11 12 11 7 5 6 7 5 8 8 13 23 25 12 14 5 4 7 15 15 10 10 11 10 12 18 19 8 17 18 24
16 17 17 17 16 14 12 11 10 10 8 7 8 9 11 13 10 10 10 8 7 6 7 10 13 8 3 7 6 5 3 2 8 11 14 14 13 11 11 19 21 20 19 25 24
17 18 18 17 16 14 12 11 11 9 7 6 7 8 9 9 4 4 13 9 4 7 11 17 18 2 4 8 4 2 5 11 11 11 19 13 16 16 19 17 16 19 16 17 20
18 20 20 19 16 14 12 12 11 8 6 7 6 7 7 3 3 2 10 9 7 7 8 13 4 5 7 12 7 9 6 9 9 9 19 9 10 10 14 15 18 15 15 10 11
20 23 22 20 17 15 13 12 9 6 5 5 5 7 2 3 6 3 9 9 9 7 8 11 9 6 4 4 17 14 7 15 16 11 15 16 15 17 17 17 15 15 13 11 9
23 25 23 22 19 16 11 8 5 4 4 4 4 5 1 4 3 7 10 11 8 10 14 17 7 6 10 5 3 7 12 14 13 14 15 19 15 13 15 15 15 14 12 10 11
25 27 25 24 18 13 8 5 3 3 3 3 3 3 4 8 5 7 11 9 9 17 15 16 17 3 9 4 5 13 11 12 14 9 17 8 8 13 15 13 11 11 13 13 10
27 29 28 24 17 11 7 4 3 2 4 3 2 1 6 7 8 8 13 13 14 18 12 17 15 5 2 4 7 8 8 9 10 10 7 14 4 11 15 15 11 10 9 9 11
29 30 29 25 15 10 6 3 2 3 3 3 1 3 8 6 8 14 16 13 16 10 13 17 11 6 8 11 5 9 2 15 4 9 8 11 6 6 17 14 12 9 8 10 9
29 31 31 25 15 9 4 4 4 2 3 3 9 3 6 8 11 13 13 15 7 5 7 8 5 5 4 4 8 10 6 6 5 4 17 14 13 8 16 15 13 10 9 9 11
30 31 31 26 16 9 6 4 1 1 6 9 6 5 6 20 16 13 17 11 9 5 5 9 4 8 10 16 11 13 6 5 7 7 7 4 11 13 14 15 14 10 10 9 11
31 31 31 26 16 9 6 4 9 9 7 19 18 17 10 12 4 8 16 7 6 7 8 7 9 14 10 16 16 15 14 10 9 7 4 11 14 16 7 15 17 17 14 13 12
32 31 31 27 13 10 10 12 12 13 4 9 15 10 4 8 8 11 12 9 6 8 10 10 13 14 10 1 2 6 13 15 10 12 3 5 5 6 14 10 16 20 18 15 16
33 31 30 31 6 7 10 9 9 10 3 6 8 8 9 7 7 12 18 9 6 11 10 9 16 13 4 4 5 8 7 9 7 16 7 15 4 8 19 14 18 20 19 18 17
34 33 27 19 14 7 16 13 12 6 3 9 8 8 9 9 1 9 23 8 10 8 5 11 11 7 4 5 5 10 9 7 6 8 5 10 5 6 14 5 6 13 18 18 18
35 32 29 9 14 13 12 16 12 1 6 8 6 4 8 8 10 8 8 6 7 8 10 10 10 5 8 8 9 8 7 9 5 2 5 12 4 4 14 9 6 7 23 13 16
38 30 28 13 5 11 12 7 1 3 9 8 7 8 8 9 10 8 8 8 6 3 6 10 11 9 4 4 7 4 4 4 4 2 7 6 6 8 7 16 16 28 27 17 15
39 31 14 14 7 8 14 2 4 9 7 7 11 10 11 10 11 10 9 8 10 9 6 7 8 10 9 9 7 7 8 6 6 3 3 5 2 1 5 11 15 10 6 15 17
37 22 9 11 5 6 1 4 6 4 13 13 2 8 9 10 10 12 10 9 10 11 8 5 7 5 7 6 12 8 4 10 4 5 4 1 3 5 11 4 2 4 6 9 6
27 11 10 13 12 6 1 5 7 10 18 14 10 5 4 12 12 10 11 12 12 14 12 8 8 7 14 9 8 9 7 2 2 2 4 3 5 6 15 14 12 10 8 9 7
7 4 8 17 10 1 4 5 11 17 18 13 7 9 10 10 9 8 13 11 12 15 12 10 8 12 8 4 9 3 5 2 2 3 6 4 6 9 20 20 18 13 10 8 7
8 3 11 10 2 3 5 8 8 20 20 18 6 5 9 12 14 11 10 8 12 10 10 11 6 6 12 14 9 10 10 9 5 8 3 5 6 1 18 19 18 16 12 10 8
6 4 9 10 2 5 8 14 16 16 17 16 5 8 8 9 9 8 14 18 15 7 10 7 4 5 8 9 5 8 6 6 4 4 8 2 6 4 13 10 14 13 10 8 8
4 4 2 1 5 6 6 9 12 15 15 15 9 2 10 13 10 8 11 12 16 12 3 9 5 7 9 9 7 7 9 10 9 3 6 8 6 2 8 14 11 10 10 9 9
3 3 7 5 8 14 13 13 15 17 14 14 10 11 7 7 10 12 15 11 17 8 3 5 8 7 6 7 12 11 9 14 10 10 8 7 7 10 13 16 12 11 9 10 9
4 4 7 9 10 11 9 7 14 16 12 15 12 16 14 5 5 7 13 7 4 13 13 8 5 5 7 7 12 16 17 15 15 14 7 8 11 8 9 10 14 14 12 11 12
12 9 5 7 8 9 8 13 17 15 13 15 14 7 12 8 8 8 9 10 9 8 10 6 5 2 7 5 8 15 5 10 8 5 12 10 12 7 8 19 18 15 14 14 14
Wind_Direction
2 360 356 352 347 340 334 327 328 325 323 317 321 316 324 316 310 291 244 233 206 285 238 255 237 243 238 144 184 192 210 86 106 109 114 90 96 92 123 130 154 137 133 134 139
1 358 356 351 346 337 330 323 324 324 320 314 320 321 333 332 323 262 239 231 236 269 263 270 295 322 274 116 166 189 320 187 140 142 130 141 138 137 106 96 99 108 120 131 137
1 358 351 342 340 333 324 320 320 319 311 306 315 324 334 340 290 219 208 217 212 230 247 287 286 179 32 27 336 180 223 129 150 119 132 132 127 120 118 119 124 131 137 146 157
2 356 349 345 340 333 322 316 316 310 299 302 313 329 328 2 37 176 186 196 186 212 271 292 314 40 34 339 300 305 248 321 132 96 118 125 127 130 123 126 126 134 147 152 161
1 357 352 347 341 332 319 315 308 293 283 294 316 335 354 226 255 223 174 173 174 181 259 275 278 100 79 310 297 211 328 311 119 119 107 99 98 104 110 118 125 139 150 167 161
1 358 354 348 340 330 324 317 305 282 272 282 317 333 327 249 171 165 166 174 172 201 250 256 291 145 147 219 182 325 358 350 1 76 96 107 114 113 121 126 140 154 166 178 158
3 359 356 349 342 337 331 322 302 256 250 265 308 354 264 260 170 170 172 191 201 222 252 310 330 6 166 323 69 20 3 354 39 29 107 117 75 125 133 134 153 177 183 171 159
3 1 358 350 344 341 327 321 308 250 239 253 293 116 245 197 174 174 198 222 243 252 281 297 309 320 331 45 28 40 31 333 40 16 66 18 191 144 145 144 170 191 157 147 130
4 1 358 354 347 341 338 333 314 255 249 259 260 206 278 192 220 201 205 225 231 244 255 275 287 240 137 117 51 49 329 289 299 50 25 12 280 168 150 156 175 178 146 136 145
358 359 358 356 344 336 332 323 318 275 262 277 267 258 253 224 197 201 216 237 256 242 276 235 264 240 263 167 167 173 165 245 276 56 43 340 336 199 166 163 169 165 155 153 146
355 353 354 355 341 317 306 337 312 263 239 208 193 240 158 224 171 205 198 215 260 257 251 269 254 256 264 170 166 166 147 168 226 164 92 65 315 278 190 167 165 159 162 164 156
354 352 349 350 337 305 303 256 291 311 290 225 251 260 253 133 162 213 179 189 223 233 238 288 241 255 275 142 158 159 149 191 300 174 134 164 201 248 296 184 171 162 171 168 164
351 349 347 345 332 291 239 245 317 304 279 269 206 232 189 144 217 207 169 206 205 229 245 225 252 255 283 110 134 264 182 190 207 191 81 188 261 157 266 230 177 169 174 171 171
349 347 346 340 326 312 255 291 299 313 308 259 183 226 208 170 245 221 172 184 238 209 235 249 260 268 78 326 320 273 300 200 211 139 198 213 241 167 212 223 188 169 177 176 173
344 343 340 336 305 308 322 343 334 317 314 126 173 182 168 177 157 225 169 226 239 247 206 250 269 283 277 240 266 265 320 324 358 347 331 218 235 219 175 228 223 177 180 182 172
337 338 333 329 312 292 318 312 303 324 247 183 126 173 152 206 274 146 154 201 254 273 286 262 277 286 228 260 222 284 333 344 344 263 320 268 126 229 189 178 84 4 272 183 173
331 331 318 287 234 339 330 312 301 229 152 149 164 175 217 203 239 170 179 190 213 222 275 291 278 273 280 338 332 234 343 341 332 301 224 294 299 227 140 146 158 193 209 173 176
329 330 323 266 257 302 295 319 249 278 272 171 157 182 182 214 210 230 180 206 218 246 282 214 281 220 214 188 190 251 176 174 224 223 319 297 124 118 163 171 180 180 149 173 180
331 331 272 266 201 229 294 235 223 220 355 342 291 176 192 211 217 209 200 205 215 197 207 305 254 305 237 160 155 252 260 218 262 299 356 212 340 52 143 169 172 135 255 112 154
333 309 273 215 177 189 195 258 288 336 311 312 323 310 284 206 202 211 197 206 219 218 192 238 286 285 308 156 189 172 233 320 315 276 283 221 221 197 172 184 188 174 132 119 128
324 295 116 153 168 159 224 253 295 300 309 319 297 309 311 320 321 249 215 217 200 219 207 197 184 272 322 230 169 185 257 264 164 163 191 257 265 203 179 163 160 159 156 156 169
323 292 129 168 179 216 237 259 269 280 285 288 285 271 294 304 310 315 315 292 200 213 197 211 190 221 245 264 202 189 195 194 149 280 239 168 279 258 164 158 162 160 155 165 177
316 270 295 224 237 267 281 291 299 295 283 281 286 307 307 294 288 292 303 305 311 293 178 195 257 237 310 309 254 177 211 223 228 186 248 173 284 151 137 131 135 136 130 132 124
294 307 324 83 231 275 317 312 321 302 301 328 304 343 311 301 304 288 293 301 303 312 315 142 170 181 218 225 237 201 206 211 204 197 228 229 166 139 110 130 135 129 127 114 106
246 333 360 316 338 334 329 323 314 316 334 339 331 317 250 275 306 303 305 320 325 314 243 200 211 211 245 280 276 278 250 211 202 217 202 252 198 205 180 160 146 128 117 111 108
328 355 352 304 299 322 315 300 298 297 299 300 299 303 309 10 25 346 349 359 294 331 346 323 248 207 257 279 286 290 286 272 228 217 241 241 264 179 184 129 139 146 144 137 120
9 347 316 286 305 295 286 296 301 308 307 303 298 2 328 24 0 321 310 315 297 297 313 319 7 286 242 259 301 277 245 270 286 241 204 210 236 181 182 155 156 155 152 137 133